Vlan Edition Locale Reuss

LE CHALLENGE DU BRABANT WALLON

19 courses réparties sport05.gif (4991 octets) ... dans tout le Brabant Wallon

Solidaris Antipode TV COM
CHALLENGERS Inscrits au Challenge

Liste de vos courses sur le Challenge
Liste des courses d'un joggeur

MESSAGE:
Un coureur ne trouve plus ses chaussures après la course de Sart-Risbart. Elles étaient placées dans un petit sac noir. Si vous avez des informations, contactez-nous.

NIVELLES

  Nom Prenom Club Categorie Temps
1 KEBIR AKLI TRAKKS M/30-39/1 14:57
2 BRIFFEUIL OLIVIER SPIBO M/40-49/1 14:58
3 MONSIEUR MICHAEL ATCC M/40-49/2 15:16
4 FRANCOIS SEBASTIEN   M/40-49/3 15:38
5 QUINET MARC   M/40-49/4 16:02
6 FLAMENT JOHN   M/15-19/1 16:06
7 LOUVEAUX CORENTIN CS DYLE M/15-19/2 16:18
8 MOORTGAT SEBASTIEN   M/20-29/1 16:30
9 LENOIR PHILIPPE   M/30-39/2 17:24
10 DELARGE MATHIEU   M/15-19/3 17:25
11 GREK VINCENT CABW M/50-59/1 17:44
12 BIOT SHANA   D/15-19/1 17:54
13 DOM MODI NADEGE   D/15-19/2 17:55
14 WINGELINCKX LOUIS   M/15-19/4 18:05
15 DE JONGH STEVE   M/40-49/5 18:07
16 FOURNEAUX ANTOINE   M/20-29/2 18:35
17 FLAMENT LILI   D/15-19/3 18:42
18 DASCOTTE FRANCOIS   M/15-19/5 19:07
19 LENOIR HERVE   M/30-39/3 19:17
20 COPPEE SIMON   M/15-19/6 19:18
21 LANNOY VICTOR   M/15-19/7 19:24
22 ESLAMPANAN HUBERT   M/20-29/3 19:25
23 PIERREQUIN ISABELLE   D/30-39/1 19:52
24 LONGCHAMP VALENTIN   M/20-29/4 20:06
25 MAGEREN MATHIEU   M/15-19/8 20:34
26 ELMAIHOUNI ADAM   M/15-19/9 21:07
27 LOUIS JOHN   M/50-59/2 21:18
28 LEVECQ ALEX   M/15-19/10 21:19
29 DONCKERS LOUIS   M/15-19/11 21:24
30 DUFRENNE XAVIER   M/30-39/4 21:38
31 EYLENBOSCH GASTON B.V.L M/60-69/1 21:53
32 LEVECQ MATHIAS CABW M/15-19/12 22:04
33 JIMENEZ RAQUEL   D/30-39/2 22:20
34 XHEMALAJ ENEO   M/30-39/5 22:21
35 THUNUS JEAN PHILIPPE JOG ITTR M/50-59/3 22:32
36 HARVENT JEAN CLAUDE   M/60-69/2 22:38
37 HENRY ANTOINE   M/15-19/13 22:44
38 VAN DAMME RAPHAEL   M/20-29/5 22:53
39 BOLOGNESE DALEZIO   M/15-19/14 22:57
40 BRABANT NOAM   M/15-19/15 23:00
41 THOMAS NICOLAS   M/20-29/6 23:02
42 VAN LOOCK ERIK   M/50-59/4 23:16
43 BELSACK HADEWYCH   D/40-49/1 23:17
44 VERMAELEN JOHAN DEMARSIN M/40-49/6 23:19
45 CHIVOT QUENTIN   M/20-29/7 23:27
46 DAICHE OLIVIER   M/40-49/7 23:31
47 MAGEREN EMILIE   D/15-19/4 23:24
48 HOUGARDY LOIC   M/15-19/16 23:35
49 VANCASTER MARTIN   M/15-19/17 23:36
50 JONCKERS PITCH   M/50-59/5 23:46
51 DEVILLE ANNE ET ENGHIEN D/40-49/2 23:51
52 VREUX SEAN   M/15-19/18 23:59
53 DENIS PIERRE   M/50-59/6 24:01
54 D HOOMS SIMON   M/20-29/8 24:05
55 FRANCOIS JULIE   D/20-29/1 24:07
56 LELOUX JULIEN   M/15-19/19 24:10
57 DEN HOUDIJKER WILLEM JOG BEER M/60-69/3 24:20
58 GASCARD ALICE   D/30-39/3 24:23
59 AUDRIT EMMANUEL   M/30-39/6 24:29
60 BEAUVOIS CECILE VERTIGO D/40-49/3 24:36
61 VERMAELEN WILLY DEMARSIN M/60-69/4 24:45
62 BATAILLE ALEXANDRE VERTIGO M/15-19/20 24:54
63 REYNTJENS CEDRIC   M/15-19/21 25:01
64 PHILIPPE THOMAS ATCC M/30-39/7 25:04
65 CLABOTS PIERRE   M/20-29/9 25:09
66 VYTTENDAELE DELPHINE   D/30-39/4 25:13
67 DIALLO ABOUBACAR   M/40-49/8 25:15
68 REYNTJENS CHRISTOPHE   M/40-49/9 25:17
69 CHICOT JEREMY   M/15-19/22 25:22
70 VADEPONTSEELE ALAIN NAC M/50-59/7 25:24
71 GAY STEPHANE   D/30-39/5 25:25
72 SCHMIT LAURA   D/15-19/5 25:26
73 VANDERMEULEN MARIE   D/15-19/6 25:27
74 FLAMENT DAVID   M/30-39/8 25:29
75 LORIMIER FLAVIEN VERTIGO M/15-19/23 25:31
76 DAULISA ENZO   M/40-49/10 25:32
77 NAIKEN SEBASTIEN JAMES M/30-39/9 25:34
78 POTIER LEO   M/15-19/24 25:36
79 VANMARSENILLE LOIC   M/15-19/25 25:38
80 AUDOOR CHARLINE   D/20-29/2 25:40
81 KASSOUS MOHAMMED   M/50-59/8 25:42
82 CONSTANT MICHEL GAG M/50-59/9 25:46
83 MIESSE DANY NAC M/60-69/5 25:49
84 NIZENG BAPTISTE   M/15-19/26 25:55
85 NIZERY DAMIEN   M/30-39/10 25:57
86 VAN QUEKELBERGHE TOM   M/15-19/27 26:02
87 ELSEN PHILIPPE   M/60-69/6 26:06
88 DUBOIS CAROLINE   D/30-39/6 26:08
89 HOLLANDERS ROBIN   M/20-29/10 26:10
90 DANIEL CHRISTIANE   D/60 &+/1 26:12
91 MATHY ROMANE   D/15-19/7 26:17
92 BALLANT DENIS   M/50-59/10 26:20
93 VALENTE CHIARA   D/15-19/8 26:36
94 HARDY YSALINE   D/15-19/9 26:38
95 MONNOYE CHARLOTTE   D/15-19/10 26:40
96 DEFLANDRE LOLITA   D/15-19/11 26:47
97 BERTHOLET SARAH   D/15-19/12 26:51
98 SWALUS JOZEF JOG BEER M/60-69/7 26:53
99 ABSIL CLEMENCE   D/15-19/13 26:57
100 FRANCOIS LUCIE   D/15-19/14 26:59
101 MAES DANIEL VERTIGO M/50-59/11 27:00
102 NOSSAINT LEO   M/15-19/28 27:01
103 DEBOCK LAETICIA   D/15-19/15 27:02
104 MERNIER ROMY   D/15-19/16 27:04
105 GRUIELLE AUDREY   D/20-29/3 27:06
106 MICHELS STEPHANE   M/40-49/11 27:08
107 LACROIX ISABELLE VERTIGO D/40-49/4 27:14
108 DURION AURELIE   D/15-19/17 27:18
109 DEBOCK VIRGINIE   D/15-19/18 27:20
110 LOUIS OCEANE   D/15-19/19 27:31
111 DAMAN LOIC   M/15-19/29 27:34
112 DAMAN CHRISTOPHE USBW ROAD TEAM M/40-49/12 27:37
113 DUTRIEUX MATHIS   M/15-19/30 27:39
114 MOENS SYLVIA   D/40-49/5 27:46
115 PERBAIX MANON   D/20-29/4 27:48
116 ELSEN MORGANE   D/30-39/7 27:52
117 MATTHEWS LUC   M/50-59/12 27:53
118 WARNIER MARIE   D/20-29/5 27:56
119 FAYE CHARLOTTE   D/15-19/20 27:59
120 FAYE BENOIT   M/40-49/13 28:00
121 RASPBERRY BARRY   M/50-59/13 28:14
122 LAUWERS JULIE   D/30-39/8 28:29
123 LAUWERS BENEDICTE   D/30-39/9 28:30
124 BEAUMON AMELIE   D/20-29/6 28:32
125 DUCROCQ EMELINE COP D/20-29/7 28:40
126 VANDERHAEGEN CHRISTIAN HAC M/50-59/14 28:41
127 PLAQUET VERONIQUE   D/30-39/10 28:53
128 HAEGEMAN CATHY   D/30-39/11 28:54
129 HOLLANDERS MAXIME   M/20-29/11 28:57
130 MASSET NADIA   D/40-49/6 28:59
131 GILLES MANON   D/20-29/8 29:00
132 VANDROOGENBROECK MARIE   D/15-19/21 29:02
133 MULLE DE TERSCHUEREN OCEANE   D/15-19/22 29:05
134 GILSON GEOFFREN   M/20-29/12 29:07
135 DE LANTSHEERE LAETITIA   D/30-39/12 29:11
136 VAN DEN BOSSCHE ASTRID   D/40-49/7 29:13
137 MARCHAL ARNAUD   M/15-19/31 29:15
138 FRENNET NATHALIE JAMES D/40-49/8 29:22
139 FALMAT JEAN MARC   M/50-59/15 29:25
140 DEGREUS NICOLAS   M/20-29/13 29:27
141 AVAU MAGDA JOG BEER D/60 &+/2 29:38
142 DURAY CATHERINE   D/40-49/9 29:39
143 COPETTE PAULINE   D/20-29/9 29:42
144 THIEBAUT JEAN MARIE   M/70 &+/1 29:44
145 DE LAEVER CHRISTIAN LA HOUSS M/70 &+/2 29:56
146 DE WOLF ROBAIN   M/15-19/32 30:00
147 BOVY DANIEL NAC M/70 &+/3 30:04
148 VANBELLINGHEN NICOLE JOGGANS D/50-59/1 30:14
149 DURIEUX ELOISE   D/30-39/13 30:15
150 RASSON CELINE   D/15-19/23 30:17
151 VANTIEGHEN DELPHINE   D/40-49/10 30:19
152 FRANCOIS AMORY   M/15-19/33 30:20
153 DOCKX MARIE   D/20-29/10 30:21
154 DEBUCQUOY KAROLIEN   D/40-49/11 30:28
155 CALIGIONE CARINE   D/50-59/2 30:31
156 ROLAND PLILIPPE THEODO TEMPO M/50-59/16 30:35
157 DUFRASNE VINCENT   M/30-39/11 30:42
158 LORENT JOEL   M/50-59/17 30:46
159 PINTE CHARLOTTE   D/20-29/11 30:51
160 TERRAZZIND STEPHANIE   D/30-39/14 30:53
161 GILBERT JEAN   M/70 &+/4 30:55
162 CALLU JULIEN   M/30-39/12 30:59
163 BOUTIFLAT MATHILDE   D/20-29/12 31:03
164 VANDERCAM CHRISTIAN JC THIMEON M/60-69/8 31:05
165 RAGUZZI NADIA   D/50-59/3 31:07
166 VAN BOXMEER JOËLLE   D/50-59/4 31:13
167 FIRQUET FRANOISE   D/60 &+/3 31:18
168 DEBOUCHE ALEXANDRINE   D/20-29/13 31:20
169 BOGAERT ALINE   D/30-39/15 31:22
170 WISELER LUC   M/50-59/18 31:25
171 VERMOUT SANDY   D/40-49/12 31:27
172 FRENNET INGRID   D/40-49/13 31:29
173 SCHUMANN STEPHANIE   D/30-39/16 31:30
174 VANEUKEN FABIENNE   D/50-59/5 31:32
175 VERSCHEURE MARJOLAINE VERTIGO D/40-49/14 31:33
176 LEBLUS INGRID   D/40-49/15 31:35
177 BOSQUET AMANDINE   D/20-29/14 31:40
178 MARIETTOS MADELINE   D/20-29/15 31:42
179 CLAES ALEX   M/15-19/34 31:43
180 BOISSEAU DELPHINE   D/20-29/16 31:47
181 MARCHAL JULIE   D/20-29/17 31:48
182 CLEMENT ANNE-FRANÇOISE VERTIGO D/40-49/16 32:07
183 BATAILLE PATRICK VERTIGO M/50-59/19 32:19
184 DELEUX ERIC   M/40-49/14 32:28
185 THIRY VERONIQUE   D/40-49/17 32:29
186 LANGE LOUISE   D/30-39/17 32:31
187 TAQUET CHARLOTTE   D/30-39/18 32:32
188 NOON CAROLE   D/30-39/19 32:33
189 VANCANEGHEM NOA   M/15-19/35 32:36
190 BOUDART EMILIEN   M/15-19/36 32:42
191 GHYSELINCK RUDY   M/50-59/20 32:45
192 KAISER CATHERINE   D/40-49/18 32:48
193 AHMED FATIMA   D/30-39/20 32:52
194 BORTOLAMI DOROTHEE   D/30-39/21 32:58
195 PECLERS VIRGINIE   D/40-49/19 32:59
196 BRUX SOPHIE JAMES D/40-49/20 33:00
197 HORNY CHLOE   D/15-19/24 33:02
198 DE MEULDER EMILIE   D/20-29/18 33:05
199 NGUYEN KIM-CHI   D/30-39/22 33:07
200 ROLAND AMELIE THEODO TEMPO D/20-29/19 33:09
201 ROLAND CORALIE   D/20-29/20 33:11
202 MICHOTTE ANNE SOPHIE   D/30-39/23 33:14
203 MARIN JULIE   D/15-19/25 33:16
204 BIESMANS FREDERIC   M/30-39/13 33:19
205 ZACHARIAS JEAN   M/60-69/9 33:21
206 BAUDOUX BERNADETTE   D/50-59/6 33:23
207 HERION SARAH   D/15-19/26 33:25
208 LEMMENS VIRGINIE   D/40-49/21 33:27
209 BLONDEL MARIE JEANNE LA THURE D/60 &+/4 33:28
210 MENDOLIA ROSALBA   D/40-49/22 33:29
211 WILLEM MARIE   D/40-49/23 33:30
212 SCHOCKERT DOROTHEE   D/40-49/24 33:31
213 FAIGNART FREDERIC   M/40-49/15 33:32
214 PARENT CINDY   D/30-39/24 33:34
215 BOGAERT DORIANE   D/40-49/25 33:37
216 GENARD KLEBERT   M/60-69/10 33:39
217 VANDER SRICHT LOIC   M/30-39/14 33:42
218 CREM JODIE   D/30-39/25 33:43
219 MOES NOEMIE   D/20-29/21 33:46
220 COLLARD VINCIANE   D/30-39/26 33:50
221 DELDART CHRISTELLE   D/40-49/26 33:54
222 BARBE SIMON   M/15-19/37 33:55
223 BARNAY ELISA   D/30-39/27 33:57
224 STALPAERT FABIENNE UAC D/50-59/7 34:00
225 PAUWELS CARINE   D/50-59/8 34:20
226 MARTINEZ ISABEL   D/40-49/27 34:26
227 RODONDO PEDRO   M/60-69/11 34:29
228 WILLEM CECILE   D/30-39/28 34:33
229 MATHY CAMILLE   D/15-19/27 34:38
230 DUPUIS JULIETTE RUN4VILLERS D/20-29/22 34:47
231 BRENNET FRANCOIS RUN4VILLERS M/30-39/15 34:49
232 LENAERTS VALERIE   D/40-49/28 34:53
233 CUNEGATTI SAMANTHA   D/30-39/29 34:56
234 GILIN WENDY RUN4VILLERS D/20-29/23 34:59
235 PICCICUTO MARIE   D/50-59/9 35:06
236 BOLOGNESE DIEGO   M/40-49/16 35:07
237 GUNS CAROLINE   D/30-39/30 35:11
238 LUTTE LEA   D/15-19/28 35:15
239 DOBLAS VALERIE   D/30-39/31 35:21
240 MARCHAL COLLIN   M/15-19/38 35:23
241 DECRAECKER CELINE SPT WAVRE D/30-39/32 35:24
242 CAPOUILLEZ DENIS DRA M/70 &+/5 35:32
243 CENTORBI ORNEZCA   D/20-29/24 35:43
244 FAIGNART HUGO   M/15-19/39 35:43
245 BILLE COLETTE   D/20-29/25 35:55
246 LECONTE CHRISTOPHE   M/20-29/14 35:56
247 COELKELBERGH MAGALI   D/30-39/33 36:00
248 ZAMMUTO FRANCA   D/40-49/29 36:08
249 SZOLLOSI CHRISTINE   D/40-49/30 36:09
250 DURITA SNJEZANA JET D/50-59/10 36:19
251 ROBERT MURIEL   D/40-49/31 36:24
252 STOCKMANS CECILE RCB D/20-29/26 36:27
253 DECHAMPS AUDREY   D/30-39/34 36:31
254 CARLIER LUC   M/60-69/12 36:37
255 VERMYLEN MAXIME   M/15-19/40 36:38
256 OPPENS STEPHANIE   D/40-49/32 36:46
257 SCHOT SEVERINE   D/30-39/35 36:47
258 GUSTIN VALENTINE   D/20-29/27 36:48
259 COLLE CYRUS   M/15-19/41 36:49
260 DELLA FAILLE LARISSA   D/30-39/36 37:00
261 HOUGARDY MARIE LAURENCE   D/30-39/37 37:27
262 ANSEEUW ANGELINA   D/15-19/29 37:53
263 MASVRE ALEXANDRA   D/30-39/38 38:02
264 SCHARPE CATHERINE   D/40-49/33 38:35
265 BRONE ALINE   D/15-19/30 38:42
266 FRANCOIS SAMANTHA   D/15-19/31 39:55
267 LOUAGIE DANIEL CS DYL.G M/70 &+/6 43:22
268 VANSINTJAN PIET   M/60-69/13 44:00
269 OTTE PIERRE   M/60-69/14 44:00
270 MATHIEU GENVIEVE   D/50-59/11 44:00
271 VALKE TRISTAN   M/15-19/42 44:00